Location: Milano
(45.4642°N, 9.1900°E)
Time: 00:57:47
(UTC+02:00)

ISS - Visible Passes

Search period start: 11 May 2021 00:00
Search period end: 21 May 2021 00:00
Orbit: 418 x 421 km, 51.6° (Epoch: 10 May)

Date Brightness Start Highest point End Pass type
(mag) Time Alt. Az. Time Alt. Az. Time Alt. Az.
11 May -1.7 02:04:21 29° NNE 02:04:21 29° NNE 02:06:32 10° NE visible
11 May -1.7 03:37:47 10° WNW 03:40:47 28° N 03:43:47 10° ENE visible
11 May -3.3 05:14:37 10° WNW 05:18:00 66° NNE 05:21:22 10° ESE visible
12 May -1.1 01:18:16 16° NE 01:18:16 16° NE 01:19:06 10° NE visible
12 May -1.6 02:51:12 16° NW 02:53:11 27° N 02:56:09 10° ENE visible
12 May -2.7 04:27:13 10° NW 04:30:31 48° NNE 04:33:48 10° E visible
13 May -1.7 02:05:01 26° NNW 02:05:36 28° N 02:08:34 10° ENE visible
13 May -2.2 03:39:48 10° NW 03:42:59 37° NNE 03:46:10 10° E visible
13 May -3.6 05:16:36 10° WNW 05:19:54 53° SW 05:23:12 10° SE visible
14 May -1.7 01:18:37 28° NNE 01:18:37 28° NNE 01:21:03 10° NE visible
14 May -1.9 02:52:20 10° NW 02:55:25 31° N 02:58:30 10° ENE visible
14 May -3.8 04:29:07 10° WNW 04:32:30 84° SSW 04:35:53 10° ESE visible
14 May -3.9 22:50:08 10° SW 22:53:27 63° SSE 22:55:37 20° ENE visible
15 May -2.1 00:27:18 10° W 00:30:26 35° NNW 00:33:35 10° NE visible
15 May -1.7 02:04:51 10° NW 02:07:50 28° N 02:10:50 10° ENE visible
15 May -3.4 03:41:41 10° WNW 03:45:03 67° NNE 03:48:25 10° ESE visible
15 May -3.3 22:02:55 10° SSW 22:06:04 39° SE 22:09:15 10° ENE visible
15 May -2.6 23:39:38 10° W 23:42:53 43° NNW 23:46:09 10° NE visible
16 May -1.6 01:17:17 10° WNW 01:20:14 27° N 01:23:12 10° ENE visible
16 May -2.8 02:54:16 10° NW 02:57:34 48° NNE 03:00:51 10° E visible
16 May -3.1 04:31:12 10° WNW 04:34:18 33° SW 04:37:22 10° SSE visible
16 May -3.2 22:52:03 10° WSW 22:55:22 59° NNW 22:58:43 10° ENE visible
17 May -1.6 00:29:40 10° WNW 00:32:38 28° N 00:35:36 10° ENE visible
17 May -2.3 02:06:50 10° NW 02:10:01 37° NNE 02:13:12 10° E visible
17 May -3.7 03:43:38 10° WNW 03:46:56 53° SW 03:50:14 10° SE visible
17 May -3.7 22:04:32 10° WSW 22:07:54 85° NNW 22:11:17 10° ENE visible
17 May -1.8 23:42:00 10° WNW 23:45:02 30° N 23:48:04 10° NE visible
18 May -1.9 01:19:23 10° NW 01:22:27 31° N 01:22:55 30° NNE visible
18 May -2.0 22:54:19 10° W 22:57:27 35° NNW 23:00:36 10° NE visible
19 May -1.7 00:31:52 10° NW 00:34:51 28° N 00:36:30 19° NE visible
19 May -1.2 02:08:42 10° WNW 02:09:25 15° NW 02:09:25 15° NW visible
19 May -2.5 22:06:40 10° W 22:09:54 43° NNW 22:13:09 10° NE visible
19 May -1.6 23:44:18 10° WNW 23:47:15 27° N 23:50:12 10° ENE visible
20 May -2.0 01:21:17 10° NW 01:23:15 30° NW 01:23:15 30° NW visible
20 May -1.6 22:56:40 10° WNW 22:59:38 28° N 23:02:36 10° ENE visible
